Theta_e
349 347 345 341 338 337 338 340 341 342 340 336 337 339 337 335 336 337 337 336 336 338 338 337 336 336 337 337 337 335 331 333
348 349 348 345 340 337 337 340 341 342 341 339 338 339 339 336 336 337 337 337 336 337 338 337 336 335 335 336 336 336 336 334
350 349 349 347 342 338 338 339 342 343 342 342 340 340 340 338 336 337 338 337 336 336 337 336 336 334 334 335 334 335 336 335
349 350 349 347 343 338 337 338 339 341 343 343 342 340 340 339 337 337 338 338 336 336 337 336 335 335 333 333 332 333 334 335
337 346 349 347 344 341 337 337 338 338 340 341 343 341 341 340 338 339 339 339 338 338 338 337 336 335 333 332 330 330 335 335
344 340 344 346 346 344 342 339 337 337 337 339 341 342 341 341 339 339 340 340 339 338 337 336 335 335 333 331 331 329 334 336
318 324 331 333 337 335 341 343 341 337 337 337 339 341 341 341 340 340 340 340 339 338 337 337 336 335 333 332 331 329 331 335
313 314 315 316 318 319 319 323 330 340 338 337 337 338 341 341 341 341 341 341 340 338 337 337 337 336 334 334 335 331 332 335
309 310 311 312 313 314 316 316 318 322 332 340 340 337 337 340 344 344 342 342 340 340 338 337 337 337 334 334 337 336 334 335
305 306 307 307 308 309 310 314 316 317 319 322 333 338 336 337 340 344 343 342 341 341 339 338 338 338 335 334 336 335 335 335
301 302 303 304 305 306 307 307 309 312 314 315 319 331 332 333 338 341 342 341 341 341 340 339 338 338 336 335 337 336 336 335
297 298 298 300 302 303 304 305 306 307 308 311 315 317 319 329 336 336 339 341 340 341 340 340 338 338 337 336 337 336 336 336
294 294 294 295 297 298 299 300 302 304 305 307 310 313 317 321 333 330 328 337 338 340 340 340 339 339 337 337 337 335 335 336
292 292 292 293 294 294 295 296 298 299 302 305 307 308 311 315 319 333 323 336 336 338 339 339 339 338 337 336 333 335 336 336
290 290 290 291 291 291 292 294 295 297 299 301 303 304 306 309 312 317 333 326 324 336 337 338 336 337 337 335 334 337 331 336
289 288 289 290 289 290 290 291 292 293 294 297 299 301 303 305 307 312 318 333 334 334 334 337 336 336 336 335 335 332 331 331
288 288 288 289 289 288 289 289 290 291 292 294 296 298 299 301 304 308 312 319 331 331 334 336 336 336 335 334 333 331 331 326
288 289 288 288 288 288 288 288 288 289 291 292 294 296 298 300 302 306 312 315 318 330 333 335 335 334 335 335 334 332 329 327
288 289 288 288 288 288 288 288 288 289 290 292 293 294 296 298 301 303 307 311 316 322 331 333 333 333 334 334 334 333 333 331
289 288 288 287 287 287 288 289 290 291 292 293 294 295 296 297 299 300 302 305 308 313 323 331 332 332 333 330 329 327 331 333
Wind_Speed
7 7 10 14 14 14 14 15 18 19 21 22 22 21 21 20 19 18 16 14 13 11 11 12 12 11 11 12 13 12 11 12
9 10 10 12 16 17 16 16 18 19 20 21 23 22 22 22 21 20 18 16 15 14 13 13 13 14 14 14 13 12 9 10
12 11 9 11 15 20 19 18 18 20 21 22 22 24 23 24 24 22 20 18 17 16 15 14 14 14 15 15 16 14 13 9
11 11 10 9 12 19 21 20 21 23 24 24 25 26 26 26 26 24 22 21 20 19 17 17 17 16 17 18 17 16 15 11
6 11 11 10 12 15 21 22 23 24 25 27 29 28 27 28 28 27 25 23 22 21 20 20 20 19 18 18 18 19 17 13
5 3 7 11 12 15 17 23 26 26 27 28 30 31 30 31 32 32 30 28 26 25 24 23 22 21 20 19 19 19 20 15
24 18 12 12 8 11 14 21 26 28 28 29 30 32 33 33 33 33 33 32 30 30 28 25 24 23 22 20 22 21 19 14
22 24 22 20 18 18 21 18 16 23 27 32 34 34 35 36 35 34 34 35 34 33 31 28 26 26 26 24 22 21 21 16
25 22 21 21 21 23 19 21 21 16 15 32 39 37 37 37 36 36 37 38 34 33 31 29 28 28 29 29 24 25 24 20
23 23 22 23 22 21 24 22 22 20 19 20 20 37 34 36 39 39 39 38 36 35 34 33 32 30 31 30 28 27 26 26
27 26 27 26 25 26 24 25 26 27 26 24 21 17 30 43 44 40 36 38 35 38 35 36 35 34 32 32 32 30 28 26
29 28 29 30 28 29 30 27 28 30 31 26 25 26 25 39 42 34 36 35 37 39 34 35 35 34 33 32 33 34 29 29
33 34 32 32 30 33 30 29 33 34 34 33 28 26 27 26 23 42 33 35 36 39 32 31 30 30 23 23 29 34 34 32
31 33 34 33 25 27 23 29 23 31 35 32 28 29 28 27 22 21 50 36 35 39 33 26 28 30 19 13 4 11 28 35
29 29 31 28 28 30 29 31 28 22 26 31 28 28 33 32 30 24 26 43 46 44 40 34 24 30 34 12 3 7 5 18
28 28 26 25 27 24 23 23 26 28 28 31 34 30 31 34 32 29 23 25 42 42 42 37 34 28 26 41 26 12 4 3
25 24 24 24 25 25 24 24 25 30 30 29 30 31 29 33 32 30 30 24 25 38 34 31 38 36 31 31 29 17 14 3
29 29 29 28 28 27 25 26 28 29 29 30 29 28 28 24 28 28 23 27 29 27 37 36 38 42 37 40 36 20 10 5
29 30 30 30 29 28 28 26 27 29 29 28 28 29 27 25 22 25 26 26 26 27 29 40 40 37 51 41 30 33 25 20
29 29 29 30 29 29 27 27 25 26 26 27 28 27 27 28 29 29 32 34 34 32 25 29 38 37 33 19 23 30 20 23
Wind_Direction
192 199 199 215 218 218 215 207 202 196 193 193 194 190 189 190 189 189 189 186 184 182 179 175 172 166 166 170 182 182 161 162
202 212 214 215 220 218 218 217 209 202 202 202 201 198 195 195 196 195 194 193 191 189 189 185 181 172 169 171 185 189 181 179
212 216 221 229 229 220 215 215 215 213 213 209 209 205 202 200 200 201 200 196 195 193 190 192 189 183 176 175 180 191 194 211
240 227 234 234 232 227 220 218 216 217 218 214 212 212 209 205 204 205 206 202 199 197 195 194 196 195 186 184 183 186 199 208
225 243 239 242 230 236 229 225 225 221 219 218 216 214 215 209 208 204 207 208 204 200 197 202 202 199 197 194 187 187 188 199
22 336 309 255 241 239 243 238 235 232 227 223 221 218 214 214 211 207 205 207 209 207 204 207 206 205 202 198 194 195 195 203
51 56 40 21 8 359 287 261 250 242 239 235 229 224 219 216 219 214 211 209 210 212 211 210 211 207 205 202 200 197 197 208
40 36 31 27 23 19 14 11 337 266 249 249 241 234 226 221 218 221 219 217 215 216 216 214 216 213 209 201 200 197 193 194
31 21 14 11 4 358 358 358 356 348 301 260 254 242 236 227 223 220 223 221 217 219 220 221 221 220 215 212 206 211 193 191
25 17 10 3 354 345 339 335 334 338 334 325 302 254 243 245 231 226 226 226 221 220 220 218 221 222 220 215 214 204 206 193
18 11 4 357 347 340 332 326 321 317 319 325 320 325 243 259 244 227 226 228 228 223 216 217 215 217 219 214 213 205 210 210
10 8 360 354 345 334 328 326 317 312 311 318 314 315 311 265 240 244 233 225 227 223 214 214 217 215 214 214 214 212 216 215
3 358 357 354 353 347 338 336 327 316 308 308 312 306 315 321 292 234 243 250 241 229 213 210 212 215 203 212 217 222 221 222
357 353 350 349 350 339 327 317 311 309 306 307 303 299 296 303 322 244 212 237 246 240 224 212 220 206 201 196 179 231 233 226
350 348 345 346 335 333 326 316 311 317 313 307 306 305 293 293 295 308 254 232 237 242 230 223 225 219 218 196 170 215 178 217
345 343 342 335 332 328 322 316 308 307 303 300 301 304 302 296 292 293 300 251 230 235 227 224 223 226 217 225 226 186 184 188
340 340 336 333 330 325 318 309 303 301 299 298 297 298 297 296 294 291 288 289 271 250 248 231 232 228 222 228 222 203 194 142
345 344 340 338 332 325 317 308 302 297 296 295 296 295 295 294 296 291 290 285 286 283 255 243 240 237 228 229 223 210 202 163
347 345 340 338 335 327 319 307 297 289 288 288 290 292 290 286 285 287 285 279 275 283 278 253 248 246 232 240 244 232 223 212
344 346 340 340 336 329 321 309 298 290 285 282 282 282 284 285 284 280 282 280 275 274 283 272 253 253 254 220 199 264 274 244